| time (UTC) | temp C | wind direction | speed KPH | gust KPH | rain 1hr cm | rain 24hr cm | rain mn cm | humidity % | barometer mb |
| 20260510061857 | 17 | 30 | 0.0 | 0.0 | 0.00 | 0.00 | 0.00 | 91 | 1008.1 |
| 20260510061354 | 17 | 30 | 0.0 | 0.0 | 0.00 | 0.00 | 0.00 | 91 | 1008.5 |
| 20260510060850 | 17 | 29 | 0.0 | 0.0 | 0.00 | 0.00 | 0.00 | 90 | 1008.4 |
| 20260510060347 | 17 | 29 | 0.0 | 0.0 | 0.00 | 0.00 | 0.00 | 90 | 1008.4 |
| 20260510055844 | 17 | 29 | 0.0 | 0.0 | 0.00 | 0.00 | 0.00 | 90 | 1008.6 |
| 20260510055343 | 17 | 29 | 0.0 | 0.0 | 0.00 | 0.00 | 0.00 | 90 | 1008.3 |
| 20260510054842 | 17 | 29 | 0.0 | 0.0 | 0.00 | 0.00 | 0.00 | 90 | 1008.3 |
| 20260510054338 | 17 | 29 | 0.0 | 0.0 | 0.00 | 0.00 | 0.00 | 90 | 1008.5 |
| 20260510053833 | 17 | 29 | 0.0 | 0.0 | 0.00 | 0.00 | 0.00 | 90 | 1008.6 |
| 20260510053329 | 17 | 30 | 0.0 | 0.0 | 0.00 | 0.00 | 0.00 | 90 | 1008.7 |
| 20260510052826 | 17 | 29 | 0.0 | 0.0 | 0.00 | 0.00 | 0.00 | 90 | 1008.7 |
| 20260510052321 | 17 | 29 | 0.0 | 0.0 | 0.00 | 0.00 | 0.00 | 90 | 1008.7 |
| 20260510051818 | 17 | 30 | 0.0 | 0.0 | 0.00 | 0.00 | 0.00 | 90 | 1008.5 |
| 20260510051315 | 17 | 29 | 0.0 | 0.0 | 0.00 | 0.00 | 0.00 | 90 | 1008.9 |
| 20260510050812 | 17 | 29 | 0.0 | 1.6 | 0.00 | 0.00 | 0.00 | 90 | 1008.6 |
| 20260510050308 | 17 | 29 | 0.0 | 0.0 | 0.00 | 0.00 | 0.00 | 90 | 1008.7 |
| 20260510045805 | 17 | 30 | 0.0 | 0.0 | 0.00 | 0.00 | 0.00 | 89 | 1008.7 |
| 20260510045305 | 17 | 30 | 0.0 | 0.0 | 0.00 | 0.00 | 0.00 | 89 | 1008.8 |
| 20260510044759 | 17 | 29 | 0.0 | 0.0 | 0.00 | 0.00 | 0.00 | 89 | 1008.6 |
| 20260510044256 | 17 | 29 | 0.0 | 0.0 | 0.00 | 0.00 | 0.00 | 89 | 1008.7 |
| 20260510043752 | 17 | 29 | 0.0 | 0.0 | 0.00 | 0.00 | 0.00 | 89 | 1008.7 |
| 20260510043248 | 17 | 29 | 0.0 | 0.0 | 0.00 | 0.00 | 0.00 | 89 | 1008.7 |
| 20260510042746 | 17 | 30 | 0.0 | 0.0 | 0.00 | 0.00 | 0.00 | 89 | 1008.8 |
| 20260510042241 | 17 | 30 | 0.0 | 0.0 | 0.00 | 0.00 | 0.00 | 89 | 1008.7 |
| 20260510041738 | 17 | 30 | 0.0 | 0.0 | 0.00 | 0.00 | 0.00 | 89 | 1008.6 |
| 20260510041236 | 17 | 30 | 0.0 | 0.0 | 0.00 | 0.00 | 0.00 | 89 | 1008.7 |
| 20260510040733 | 17 | 30 | 0.0 | 0.0 | 0.00 | 0.00 | 0.00 | 89 | 1008.7 |
| 20260510040230 | 17 | 30 | 0.0 | 0.0 | 0.00 | 0.00 | 0.00 | 89 | 1008.7 |
| 20260510035725 | 17 | 30 | 0.0 | 0.0 | 0.00 | 0.00 | 0.00 | 89 | 1008.6 |
| 20260510035221 | 18 | 30 | 0.0 | 0.0 | 0.00 | 0.00 | 0.00 | 89 | 1008.6 |
| 20260510034717 | 18 | 30 | 0.0 | 0.0 | 0.00 | 0.00 | 0.00 | 89 | 1008.6 |
| 20260510034215 | 18 | 30 | 0.0 | 0.0 | 0.00 | 0.00 | 0.00 | 88 | 1008.6 |
| 20260510033711 | 18 | 30 | 0.0 | 0.0 | 0.00 | 0.00 | 0.00 | 88 | 1008.6 |
| 20260510033209 | 18 | 30 | 0.0 | 0.0 | 0.00 | 0.00 | 0.00 | 88 | 1008.6 |
| 20260510032705 | 17 | 30 | 0.0 | 0.0 | 0.00 | 0.00 | 0.00 | 88 | 1008.6 |
| 20260510032201 | 18 | 30 | 0.0 | 0.0 | 0.00 | 0.00 | 0.00 | 88 | 1008.5 |
| 20260510031655 | 18 | 30 | 0.0 | 0.0 | 0.00 | 0.00 | 0.00 | 88 | 1008.4 |
| 20260510031152 | 18 | 27 | 0.0 | 0.0 | 0.00 | 0.00 | 0.00 | 87 | 1008.8 |
| 20260510030646 | 18 | 27 | 0.0 | 0.0 | 0.00 | 0.00 | 0.00 | 87 | 1008.7 |
| 20260510030144 | 18 | 27 | 0.0 | 0.0 | 0.00 | 0.00 | 0.00 | 87 | 1008.6 |
| 20260510025641 | 18 | 27 | 0.0 | 0.0 | 0.00 | 0.00 | 0.00 | 87 | 1008.8 |
| 20260510025139 | 18 | 27 | 0.0 | 0.0 | 0.00 | 0.00 | 0.00 | 87 | 1008.5 |
| 20260510024635 | 18 | 27 | 0.0 | 0.0 | 0.00 | 0.00 | 0.00 | 87 | 1008.7 |
| 20260510024132 | 18 | 27 | 0.0 | 0.0 | 0.00 | 0.00 | 0.00 | 86 | 1008.5 |
| 20260510023628 | 18 | 27 | 0.0 | 0.0 | 0.00 | 0.00 | 0.00 | 86 | 1008.6 |
| 20260510023125 | 18 | 27 | 0.0 | 0.0 | 0.00 | 0.00 | 0.00 | 86 | 1008.4 |
| 20260510022625 | 18 | 27 | 0.0 | 0.0 | 0.00 | 0.00 | 0.00 | 86 | 1008.5 |
| 20260510022120 | 18 | 27 | 0.0 | 0.0 | 0.00 | 0.00 | 0.00 | 85 | 1008.5 |
| 20260510021616 | 19 | 16 | 0.0 | 1.6 | 0.00 | 0.00 | 0.00 | 86 | 1008.5 |
| 20260510021114 | 19 | 15 | 0.0 | 0.0 | 0.00 | 0.00 | 0.00 | 85 | 1008.5 |
| 20260510020614 | 19 | 15 | 0.0 | 0.0 | 0.00 | 0.00 | 0.00 | 85 | 1008.4 |
| 20260510020109 | 19 | 15 | 0.0 | 1.6 | 0.00 | 0.00 | 0.00 | 85 | 1008.4 |
| 20260510015606 | 20 | 14 | 0.0 | 1.6 | 0.00 | 0.00 | 0.00 | 85 | 1008.3 |
| 20260510015102 | 20 | 10 | 1.6 | 3.2 | 0.00 | 0.00 | 0.00 | 84 | 1008.4 |
| 20260510014558 | 20 | 8 | 3.2 | 3.2 | 0.00 | 0.00 | 0.00 | 83 | 1008.1 |
| 20260510014056 | 20 | 13 | 1.6 | 3.2 | 0.00 | 0.00 | 0.00 | 83 | 1008.3 |
| 20260510013550 | 20 | 7 | 1.6 | 3.2 | 0.00 | 0.00 | 0.00 | 83 | 1007.9 |
| 20260510013046 | 20 | 4 | 3.2 | 3.2 | 0.00 | 0.00 | 0.00 | 83 | 1007.9 |
| 20260510012539 | 20 | 355 | 3.2 | 3.2 | 0.00 | 0.00 | 0.00 | 83 | 1007.9 |
| 20260510012037 | 20 | 345 | 3.2 | 3.2 | 0.00 | 0.00 | 0.00 | 82 | 1007.8 |
| 20260510011536 | 20 | 329 | 3.2 | 4.8 | 0.00 | 0.00 | 0.00 | 82 | 1007.9 |
| 20260510011032 | 20 | 346 | 3.2 | 3.2 | 0.00 | 0.00 | 0.00 | 82 | 1007.8 |
| 20260510010529 | 20 | 351 | 3.2 | 3.2 | 0.00 | 0.00 | 0.00 | 82 | 1007.7 |
| 20260510010026 | 20 | 338 | 3.2 | 3.2 | 0.00 | 0.00 | 0.00 | 82 | 1008.0 |
| 20260510005521 | 20 | 349 | 3.2 | 3.2 | 0.00 | 0.00 | 0.00 | 81 | 1007.5 |
| 20260510005020 | 20 | 12 | 1.6 | 3.2 | 0.00 | 0.00 | 0.00 | 81 | 1007.6 |
| 20260510004517 | 20 | 2 | 3.2 | 3.2 | 0.00 | 0.00 | 0.00 | 81 | 1007.4 |
| 20260510004015 | 20 | 359 | 3.2 | 3.2 | 0.00 | 0.00 | 0.00 | 80 | 1007.3 |
| 20260510003511 | 20 | 358 | 1.6 | 3.2 | 0.00 | 0.00 | 0.00 | 79 | 1007.4 |
| 20260510003006 | 20 | 341 | 3.2 | 3.2 | 0.00 | 0.00 | 0.00 | 79 | 1007.0 |
| 20260510002502 | 20 | 330 | 3.2 | 4.8 | 0.00 | 0.00 | 0.00 | 78 | 1007.2 |
| 20260510002000 | 21 | 327 | 3.2 | 4.8 | 0.00 | 0.00 | 0.00 | 79 | 1007.1 |
| 20260510001457 | 21 | 326 | 4.8 | 4.8 | 0.00 | 0.00 | 0.00 | 78 | 1006.9 |
| 20260510000955 | 21 | 332 | 4.8 | 4.8 | 0.00 | 0.00 | 0.00 | 78 | 1006.9 |
| 20260510000450 | 21 | 343 | 3.2 | 4.8 | 0.00 | 0.00 | 0.00 | 78 | 1006.8 |
| 20260509235947 | 21 | 325 | 3.2 | 4.8 | 0.00 | 0.00 | 0.00 | 77 | 1006.6 |
| 20260509235444 | 21 | 329 | 4.8 | 4.8 | 0.00 | 0.00 | 0.00 | 77 | 1006.6 |
| 20260509234940 | 21 | 313 | 4.8 | 4.8 | 0.00 | 0.00 | 0.00 | 77 | 1006.7 |
| 20260509234437 | 21 | 316 | 4.8 | 4.8 | 0.00 | 0.00 | 0.00 | 76 | 1006.5 |
| 20260509233935 | 21 | 306 | 4.8 | 8.0 | 0.00 | 0.00 | 0.00 | 76 | 1006.6 |
| 20260509233432 | 21 | 333 | 3.2 | 4.8 | 0.00 | 0.00 | 0.00 | 76 | 1006.3 |
| 20260509232928 | 21 | 328 | 4.8 | 4.8 | 0.00 | 0.00 | 0.00 | 75 | 1006.6 |
| 20260509232426 | 21 | 345 | 3.2 | 4.8 | 0.00 | 0.00 | 0.00 | 75 | 1006.4 |
| 20260509231921 | 21 | 314 | 4.8 | 8.0 | 0.00 | 0.00 | 0.00 | 75 | 1006.4 |
| 20260509231418 | 21 | 309 | 4.8 | 4.8 | 0.00 | 0.00 | 0.00 | 75 | 1006.3 |
| 20260509230916 | 21 | 288 | 9.7 | 9.7 | 0.00 | 0.00 | 0.00 | 74 | 1006.6 |
| 20260509230413 | 22 | 312 | 4.8 | 4.8 | 0.00 | 0.00 | 0.00 | 74 | 1006.2 |
| 20260509225909 | 22 | 321 | 4.8 | 8.0 | 0.00 | 0.00 | 0.00 | 73 | 1006.4 |
| 20260509225406 | 22 | 292 | 6.4 | 8.0 | 0.00 | 0.00 | 0.00 | 73 | 1006.3 |
| 20260509224901 | 22 | 291 | 8.0 | 9.7 | 0.00 | 0.00 | 0.00 | 73 | 1006.5 |
| 20260509224357 | 22 | 307 | 6.4 | 8.0 | 0.00 | 0.00 | 0.00 | 73 | 1006.4 |
| 20260509223855 | 22 | 309 | 6.4 | 9.7 | 0.00 | 0.00 | 0.00 | 73 | 1006.3 |
| 20260509223351 | 22 | 296 | 6.4 | 11.3 | 0.00 | 0.00 | 0.00 | 73 | 1006.1 |
| 20260509222848 | 22 | 304 | 6.4 | 9.7 | 0.00 | 0.00 | 0.00 | 74 | 1006.3 |
| 20260509222343 | 22 | 308 | 8.0 | 11.3 | 0.00 | 0.00 | 0.00 | 73 | 1005.9 |
| 20260509221838 | 22 | 295 | 8.0 | 9.7 | 0.00 | 0.00 | 0.00 | 72 | 1006.3 |
| 20260509221336 | 22 | 243 | 6.4 | 8.0 | 0.00 | 0.00 | 0.00 | 72 | 1006.4 |
| 20260509220831 | 22 | 296 | 8.0 | 11.3 | 0.00 | 0.00 | 0.00 | 73 | 1006.2 |
| 20260509220327 | 22 | 295 | 6.4 | 9.7 | 0.00 | 0.00 | 0.00 | 73 | 1006.0 |
| 20260509215823 | 22 | 256 | 6.4 | 12.9 | 0.00 | 0.00 | 0.00 | 74 | 1006.3 |
| 20260509215320 | 22 | 316 | 4.8 | 11.3 | 0.00 | 0.00 | 0.00 | 74 | 1006.3 |
| 20260509214817 | 22 | 308 | 6.4 | 11.3 | 0.00 | 0.00 | 0.00 | 75 | 1006.3 |
| 20260509214314 | 22 | 283 | 8.0 | 11.3 | 0.00 | 0.00 | 0.00 | 73 | 1006.2 |
| 20260509213811 | 22 | 319 | 4.8 | 9.7 | 0.00 | 0.00 | 0.00 | 74 | 1006.0 |
| 20260509213306 | 22 | 302 | 8.0 | 12.9 | 0.00 | 0.00 | 0.00 | 74 | 1006.3 |
| 20260509212804 | 22 | 251 | 8.0 | 9.7 | 0.00 | 0.00 | 0.00 | 73 | 1006.1 |
| 20260509212305 | 22 | 278 | 8.0 | 16.1 | 0.00 | 0.00 | 0.00 | 74 | 1006.2 |
| 20260509211756 | 22 | 299 | 4.8 | 9.7 | 0.00 | 0.00 | 0.00 | 74 | 1006.1 |
| 20260509211253 | 22 | 287 | 9.7 | 11.3 | 0.00 | 0.00 | 0.00 | 73 | 1006.0 |
| 20260509210750 | 22 | 294 | 4.8 | 11.3 | 0.00 | 0.00 | 0.00 | 73 | 1006.4 |
| 20260509210248 | 22 | 268 | 6.4 | 14.5 | 0.00 | 0.00 | 0.00 | 73 | 1006.3 |
| 20260509205747 | 22 | 283 | 6.4 | 9.7 | 0.00 | 0.00 | 0.00 | 73 | 1006.3 |
| 20260509205242 | 22 | 255 | 4.8 | 8.0 | 0.00 | 0.00 | 0.00 | 73 | 1006.3 |
| 20260509204738 | 22 | 290 | 8.0 | 11.3 | 0.00 | 0.00 | 0.00 | 73 | 1006.4 |
| 20260509204235 | 22 | 287 | 4.8 | 8.0 | 0.00 | 0.00 | 0.00 | 73 | 1006.2 |
| 20260509203731 | 22 | 330 | 4.8 | 9.7 | 0.00 | 0.00 | 0.00 | 72 | 1006.4 |
| 20260509203229 | 22 | 321 | 4.8 | 11.3 | 0.00 | 0.00 | 0.00 | 73 | 1006.5 |
| 20260509202724 | 22 | 272 | 9.7 | 11.3 | 0.00 | 0.00 | 0.00 | 74 | 1006.5 |
| 20260509202220 | 22 | 277 | 17.7 | 22.5 | 0.00 | 0.00 | 0.00 | 73 | 1006.6 |
| 20260509201715 | 22 | 295 | 8.0 | 11.3 | 0.00 | 0.00 | 0.00 | 73 | 1006.7 |
| 20260509201212 | 22 | 203 | 4.8 | 11.3 | 0.00 | 0.00 | 0.00 | 73 | 1006.8 |
| 20260509200708 | 22 | 285 | 8.0 | 11.3 | 0.00 | 0.00 | 0.00 | 72 | 1006.7 |
| 20260509200203 | 21 | 192 | 6.4 | 11.3 | 0.00 | 0.00 | 0.00 | 73 | 1006.9 |
| 20260509195700 | 21 | 246 | 8.0 | 12.9 | 0.00 | 0.00 | 0.00 | 73 | 1006.7 |
| 20260509195155 | 21 | 270 | 6.4 | 11.3 | 0.00 | 0.00 | 0.00 | 74 | 1006.8 |
| 20260509194649 | 21 | 289 | 8.0 | 12.9 | 0.00 | 0.00 | 0.00 | 73 | 1006.9 |
| 20260509194146 | 21 | 236 | 8.0 | 11.3 | 0.00 | 0.00 | 0.00 | 73 | 1007.0 |
| 20260509193642 | 21 | 335 | 6.4 | 14.5 | 0.00 | 0.00 | 0.00 | 74 | 1006.9 |
| 20260509193138 | 21 | 285 | 16.1 | 16.1 | 0.00 | 0.00 | 0.00 | 73 | 1006.9 |
| 20260509192635 | 21 | 288 | 11.3 | 11.3 | 0.00 | 0.00 | 0.00 | 73 | 1007.2 |
| 20260509192130 | 21 | 270 | 8.0 | 11.3 | 0.00 | 0.00 | 0.00 | 74 | 1007.1 |
| 20260509191629 | 21 | 294 | 8.0 | 11.3 | 0.00 | 0.00 | 0.00 | 73 | 1007.1 |
| 20260509191127 | 21 | 242 | 9.7 | 11.3 | 0.00 | 0.00 | 0.00 | 74 | 1007.2 |
| 20260509190623 | 21 | 279 | 8.0 | 9.7 | 0.00 | 0.00 | 0.00 | 74 | 1007.1 |
| 20260509190120 | 21 | 301 | 4.8 | 8.0 | 0.00 | 0.00 | 0.00 | 73 | 1007.1 |
| 20260509185618 | 21 | 275 | 6.4 | 8.0 | 0.00 | 0.00 | 0.00 | 73 | 1007.1 |
| 20260509185114 | 21 | 298 | 6.4 | 14.5 | 0.00 | 0.00 | 0.00 | 73 | 1007.3 |
| 20260509184612 | 21 | 310 | 6.4 | 8.0 | 0.00 | 0.00 | 0.00 | 74 | 1007.2 |
| 20260509184109 | 21 | 320 | 6.4 | 9.7 | 0.00 | 0.00 | 0.00 | 73 | 1007.5 |
| 20260509183604 | 21 | 298 | 9.7 | 11.3 | 0.00 | 0.00 | 0.00 | 73 | 1007.3 |
| 20260509183100 | 21 | 275 | 8.0 | 14.5 | 0.00 | 0.00 | 0.00 | 73 | 1007.4 |
| 20260509182556 | 21 | 282 | 4.8 | 8.0 | 0.00 | 0.00 | 0.00 | 73 | 1007.2 |
| 20260509182053 | 21 | 168 | 4.8 | 4.8 | 0.00 | 0.00 | 0.00 | 73 | 1007.4 |
| 20260509181552 | 21 | 296 | 4.8 | 9.7 | 0.00 | 0.00 | 0.00 | 73 | 1007.5 |
| 20260509181048 | 21 | 294 | 8.0 | 14.5 | 0.00 | 0.00 | 0.00 | 73 | 1007.4 |
| 20260509180544 | 21 | 281 | 6.4 | 8.0 | 0.00 | 0.00 | 0.00 | 73 | 1007.5 |
| 20260509180042 | 21 | 278 | 8.0 | 9.7 | 0.00 | 0.00 | 0.00 | 73 | 1007.4 |
| 20260509175537 | 21 | 271 | 8.0 | 9.7 | 0.00 | 0.00 | 0.00 | 73 | 1007.5 |
| 20260509175035 | 21 | 335 | 4.8 | 8.0 | 0.00 | 0.00 | 0.00 | 72 | 1007.3 |
| 20260509174531 | 21 | 310 | 6.4 | 11.3 | 0.00 | 0.00 | 0.00 | 73 | 1007.5 |
| 20260509174026 | 21 | 319 | 4.8 | 4.8 | 0.00 | 0.00 | 0.00 | 73 | 1007.4 |
| 20260509173520 | 21 | 316 | 4.8 | 11.3 | 0.00 | 0.00 | 0.00 | 74 | 1007.5 |
| 20260509173017 | 21 | 322 | 6.4 | 11.3 | 0.00 | 0.00 | 0.00 | 72 | 1007.4 |
| 20260509172514 | 21 | 277 | 11.3 | 12.9 | 0.00 | 0.00 | 0.00 | 73 | 1007.7 |
| 20260509172010 | 21 | 300 | 8.0 | 9.7 | 0.00 | 0.00 | 0.00 | 72 | 1007.6 |
| 20260509171506 | 21 | 319 | 4.8 | 8.0 | 0.00 | 0.00 | 0.00 | 72 | 1007.4 |
| 20260509171003 | 21 | 311 | 4.8 | 8.0 | 0.00 | 0.00 | 0.00 | 73 | 1007.3 |
| 20260509170458 | 21 | 298 | 8.0 | 11.3 | 0.00 | 0.00 | 0.00 | 73 | 1007.5 |
| 20260509165954 | 21 | 276 | 8.0 | 11.3 | 0.00 | 0.00 | 0.00 | 73 | 1007.7 |
| 20260509165453 | 21 | 353 | 6.4 | 11.3 | 0.00 | 0.00 | 0.00 | 72 | 1007.7 |
| 20260509164949 | 21 | 293 | 12.9 | 12.9 | 0.00 | 0.00 | 0.00 | 73 | 1007.4 |
| 20260509164445 | 21 | 311 | 4.8 | 8.0 | 0.00 | 0.00 | 0.00 | 73 | 1007.6 |
| 20260509163941 | 21 | 271 | 8.0 | 9.7 | 0.00 | 0.00 | 0.00 | 73 | 1007.7 |
| 20260509163438 | 21 | 289 | 6.4 | 8.0 | 0.00 | 0.00 | 0.00 | 73 | 1007.7 |
| 20260509162937 | 21 | 296 | 8.0 | 12.9 | 0.00 | 0.00 | 0.00 | 73 | 1007.8 |
| 20260509162437 | 21 | 292 | 9.7 | 11.3 | 0.00 | 0.00 | 0.00 | 74 | 1007.9 |
| 20260509161932 | 21 | 288 | 8.0 | 9.7 | 0.00 | 0.00 | 0.00 | 73 | 1008.0 |
| 20260509161429 | 21 | 280 | 8.0 | 11.3 | 0.00 | 0.00 | 0.00 | 73 | 1007.7 |
| 20260509160924 | 21 | 19 | 4.8 | 9.7 | 0.00 | 0.00 | 0.00 | 73 | 1007.9 |
| 20260509160420 | 20 | 297 | 6.4 | 9.7 | 0.00 | 0.00 | 0.00 | 73 | 1007.9 |
| 20260509155915 | 20 | 250 | 8.0 | 9.7 | 0.00 | 0.00 | 0.00 | 72 | 1007.7 |
| 20260509155412 | 20 | 61 | 3.2 | 11.3 | 0.00 | 0.00 | 0.00 | 72 | 1008.1 |
| 20260509154909 | 20 | 291 | 6.4 | 9.7 | 0.00 | 0.00 | 0.00 | 72 | 1008.0 |
| 20260509154405 | 20 | 288 | 11.3 | 16.1 | 0.00 | 0.00 | 0.00 | 73 | 1008.2 |
| 20260509153902 | 20 | 291 | 8.0 | 11.3 | 0.00 | 0.00 | 0.00 | 73 | 1008.3 |
| 20260509153359 | 20 | 286 | 9.7 | 12.9 | 0.00 | 0.00 | 0.00 | 73 | 1008.3 |
| 20260509152856 | 20 | 99 | 4.8 | 8.0 | 0.00 | 0.00 | 0.00 | 73 | 1008.2 |
| 20260509152352 | 20 | 298 | 4.8 | 9.7 | 0.00 | 0.00 | 0.00 | 73 | 1008.3 |
| 20260509151849 | 20 | 291 | 6.4 | 9.7 | 0.00 | 0.00 | 0.00 | 74 | 1008.4 |
| 20260509151345 | 20 | 299 | 4.8 | 9.7 | 0.00 | 0.00 | 0.00 | 76 | 1008.0 |
| 20260509150844 | 20 | 138 | 4.8 | 8.0 | 0.00 | 0.00 | 0.00 | 76 | 1007.9 |
| 20260509150341 | 20 | 302 | 4.8 | 8.0 | 0.00 | 0.00 | 0.00 | 76 | 1007.9 |
| 20260509145838 | 20 | 341 | 3.2 | 4.8 | 0.00 | 0.00 | 0.00 | 76 | 1008.2 |
| 20260509145332 | 20 | 292 | 8.0 | 11.3 | 0.00 | 0.00 | 0.00 | 76 | 1008.2 |
| 20260509144830 | 20 | 292 | 4.8 | 11.3 | 0.00 | 0.00 | 0.00 | 76 | 1008.2 |
| 20260509144326 | 19 | 288 | 8.0 | 9.7 | 0.00 | 0.00 | 0.00 | 77 | 1008.1 |
| 20260509143823 | 19 | 344 | 6.4 | 8.0 | 0.00 | 0.00 | 0.00 | 77 | 1008.3 |
| 20260509143321 | 19 | 60 | 1.6 | 3.2 | 0.00 | 0.00 | 0.00 | 77 | 1008.1 |
| 20260509142817 | 19 | 312 | 4.8 | 9.7 | 0.00 | 0.00 | 0.00 | 77 | 1008.2 |
| 20260509142313 | 19 | 292 | 4.8 | 9.7 | 0.00 | 0.00 | 0.00 | 77 | 1008.4 |
| 20260509141809 | 19 | 276 | 8.0 | 9.7 | 0.00 | 0.00 | 0.00 | 77 | 1008.5 |
| 20260509141306 | 19 | 300 | 8.0 | 11.3 | 0.00 | 0.00 | 0.00 | 76 | 1008.5 |
| 20260509140802 | 19 | 301 | 8.0 | 9.7 | 0.00 | 0.00 | 0.00 | 76 | 1008.8 |
| 20260509140259 | 19 | 335 | 4.8 | 11.3 | 0.00 | 0.00 | 0.00 | 78 | 1008.6 |
| 20260509135757 | 19 | 327 | 4.8 | 8.0 | 0.00 | 0.00 | 0.00 | 79 | 1008.9 |
| 20260509135254 | 19 | 319 | 4.8 | 9.7 | 0.00 | 0.00 | 0.00 | 78 | 1008.4 |
| 20260509134752 | 19 | 8 | 4.8 | 4.8 | 0.00 | 0.00 | 0.00 | 78 | 1008.5 |
| 20260509134249 | 19 | 43 | 0.0 | 1.6 | 0.00 | 0.00 | 0.00 | 78 | 1008.2 |
| 20260509133746 | 19 | 17 | 4.8 | 11.3 | 0.00 | 0.00 | 0.00 | 79 | 1008.4 |
| 20260509133243 | 19 | 287 | 8.0 | 11.3 | 0.00 | 0.00 | 0.00 | 78 | 1008.4 |
| 20260509132742 | 19 | 299 | 8.0 | 9.7 | 0.00 | 0.00 | 0.00 | 77 | 1008.3 |
| 20260509132240 | 18 | 50 | 1.6 | 3.2 | 0.00 | 0.00 | 0.00 | 78 | 1008.4 |
| 20260509131736 | 18 | 325 | 4.8 | 8.0 | 0.00 | 0.00 | 0.00 | 78 | 1008.5 |
| 20260509131233 | 18 | 263 | 6.4 | 11.3 | 0.00 | 0.00 | 0.00 | 78 | 1008.4 |
| 20260509130729 | 18 | 69 | 3.2 | 3.2 | 0.00 | 0.00 | 0.00 | 79 | 1008.4 |
| 20260509130225 | 18 | 332 | 3.2 | 4.8 | 0.00 | 0.00 | 0.00 | 79 | 1008.1 |
| 20260509125721 | 18 | 25 | 3.2 | 3.2 | 0.00 | 0.00 | 0.00 | 80 | 1008.3 |
| 20260509125219 | 18 | 6 | 1.6 | 3.2 | 0.00 | 0.00 | 0.00 | 81 | 1008.4 |
| 20260509124715 | 18 | 10 | 3.2 | 3.2 | 0.00 | 0.00 | 0.00 | 81 | 1008.7 |
| 20260509124212 | 17 | 333 | 4.8 | 4.8 | 0.00 | 0.00 | 0.00 | 82 | 1008.8 |
| 20260509123710 | 17 | 14 | 1.6 | 3.2 | 0.00 | 0.00 | 0.00 | 83 | 1008.4 |
| 20260509123207 | 17 | 304 | 8.0 | 9.7 | 0.00 | 0.00 | 0.00 | 83 | 1008.5 |
| 20260509122702 | 17 | 321 | 4.8 | 4.8 | 0.00 | 0.00 | 0.00 | 84 | 1008.2 |
| 20260509122159 | 17 | 338 | 3.2 | 4.8 | 0.00 | 0.00 | 0.00 | 85 | 1008.4 |
| 20260509121656 | 17 | 346 | 3.2 | 3.2 | 0.00 | 0.00 | 0.00 | 85 | 1008.3 |
| 20260509121154 | 17 | 42 | 1.6 | 1.6 | 0.00 | 0.00 | 0.00 | 86 | 1008.3 |
| 20260509120652 | 16 | 46 | 0.0 | 1.6 | 0.00 | 0.00 | 0.00 | 87 | 1008.4 |
| 20260509120149 | 16 | 28 | 0.0 | 1.6 | 0.00 | 0.00 | 0.00 | 87 | 1008.6 |
| 20260509115647 | 16 | 38 | 0.0 | 1.6 | 0.00 | 0.00 | 0.00 | 87 | 1008.5 |
| 20260509115144 | 16 | 39 | 0.0 | 1.6 | 0.00 | 0.00 | 0.00 | 87 | 1008.5 |
| 20260509114642 | 16 | 37 | 1.6 | 1.6 | 0.00 | 0.00 | 0.00 | 87 | 1008.6 |
| 20260509114141 | 16 | 34 | 0.0 | 1.6 | 0.00 | 0.00 | 0.00 | 87 | 1008.7 |
| 20260509113639 | 16 | 32 | 0.0 | 0.0 | 0.00 | 0.00 | 0.00 | 87 | 1008.8 |
| 20260509113136 | 16 | 14 | 0.0 | 1.6 | 0.00 | 0.00 | 0.00 | 87 | 1008.7 |
| 20260509112632 | 16 | 12 | 1.6 | 3.2 | 0.00 | 0.00 | 0.00 | 87 | 1008.9 |
| 20260509112129 | 16 | 22 | 0.0 | 0.0 | 0.00 | 0.00 | 0.00 | 87 | 1009.1 |
| 20260509111626 | 16 | 22 | 0.0 | 0.0 | 0.00 | 0.00 | 0.00 | 87 | 1008.9 |
| 20260509111123 | 16 | 32 | 0.0 | 0.0 | 0.00 | 0.00 | 0.00 | 87 | 1008.9 |
| 20260509110620 | 16 | 32 | 0.0 | 0.0 | 0.00 | 0.00 | 0.00 | 87 | 1008.9 |
| 20260509110117 | 16 | 20 | 1.6 | 1.6 | 0.00 | 0.00 | 0.00 | 87 | 1009.0 |
| 20260509105616 | 16 | 20 | 0.0 | 0.0 | 0.00 | 0.00 | 0.00 | 87 | 1009.0 |
| 20260509105113 | 16 | 20 | 0.0 | 1.6 | 0.00 | 0.00 | 0.00 | 87 | 1008.9 |
| 20260509104610 | 16 | 20 | 0.0 | 0.0 | 0.00 | 0.00 | 0.00 | 87 | 1008.9 |
| 20260509104108 | 16 | 20 | 0.0 | 0.0 | 0.00 | 0.00 | 0.00 | 87 | 1008.7 |
| 20260509103604 | 16 | 20 | 1.6 | 1.6 | 0.00 | 0.00 | 0.00 | 87 | 1008.8 |
| 20260509103102 | 16 | 8 | 1.6 | 3.2 | 0.00 | 0.00 | 0.00 | 87 | 1008.8 |
| 20260509102559 | 16 | 14 | 1.6 | 3.2 | 0.00 | 0.00 | 0.00 | 87 | 1008.8 |
| 20260509102056 | 15 | 1 | 1.6 | 3.2 | 0.00 | 0.00 | 0.00 | 87 | 1008.6 |
| 20260509101552 | 16 | 35 | 0.0 | 0.0 | 0.00 | 0.00 | 0.00 | 87 | 1008.1 |
| 20260509101049 | 15 | 35 | 0.0 | 3.2 | 0.00 | 0.00 | 0.00 | 87 | 1008.0 |
| 20260509100546 | 15 | 44 | 0.0 | 1.6 | 0.00 | 0.00 | 0.00 | 87 | 1007.9 |
| 20260509100044 | 15 | 43 | 0.0 | 0.0 | 0.00 | 0.00 | 0.00 | 87 | 1008.0 |
| 20260509095540 | 15 | 43 | 0.0 | 1.6 | 0.00 | 0.00 | 0.00 | 87 | 1007.6 |
| 20260509095038 | 15 | 43 | 0.0 | 0.0 | 0.00 | 0.00 | 0.00 | 86 | 1007.7 |
| 20260509094534 | 15 | 42 | 0.0 | 0.0 | 0.00 | 0.00 | 0.00 | 86 | 1007.9 |
| 20260509094031 | 15 | 43 | 1.6 | 1.6 | 0.00 | 0.00 | 0.00 | 86 | 1007.7 |
| 20260509093529 | 15 | 46 | 0.0 | 0.0 | 0.00 | 0.00 | 0.00 | 86 | 1007.4 |
| 20260509093027 | 15 | 46 | 0.0 | 0.0 | 0.00 | 0.00 | 0.00 | 86 | 1007.7 |
| 20260509092524 | 15 | 46 | 0.0 | 0.0 | 0.00 | 0.00 | 0.00 | 85 | 1007.4 |
| 20260509092023 | 15 | 46 | 0.0 | 1.6 | 0.00 | 0.00 | 0.00 | 85 | 1007.4 |
| 20260509091520 | 15 | 46 | 0.0 | 0.0 | 0.00 | 0.00 | 0.00 | 85 | 1007.4 |
| 20260509091016 | 15 | 46 | 0.0 | 0.0 | 0.00 | 0.00 | 0.00 | 85 | 1007.5 |
| 20260509090514 | 16 | 46 | 0.0 | 0.0 | 0.00 | 0.00 | 0.00 | 85 | 1007.4 |
| 20260509090012 | 16 | 46 | 0.0 | 0.0 | 0.00 | 0.00 | 0.00 | 85 | 1007.6 |
| 20260509085508 | 16 | 46 | 0.0 | 0.0 | 0.00 | 0.00 | 0.00 | 84 | 1007.6 |
| 20260509085004 | 16 | 46 | 0.0 | 1.6 | 0.00 | 0.00 | 0.00 | 84 | 1007.5 |
| 20260509084502 | 16 | 46 | 0.0 | 0.0 | 0.00 | 0.00 | 0.00 | 84 | 1007.7 |
| 20260509083959 | 16 | 46 | 0.0 | 0.0 | 0.00 | 0.00 | 0.00 | 84 | 1007.3 |
| 20260509083456 | 16 | 46 | 0.0 | 0.0 | 0.00 | 0.00 | 0.00 | 84 | 1007.4 |
| 20260509082952 | 16 | 46 | 0.0 | 1.6 | 0.00 | 0.00 | 0.00 | 84 | 1007.4 |
| 20260509082450 | 16 | 46 | 0.0 | 1.6 | 0.00 | 0.00 | 0.00 | 83 | 1007.4 |
| 20260509081947 | 16 | 46 | 0.0 | 1.6 | 0.00 | 0.00 | 0.00 | 83 | 1007.7 |
| 20260509081444 | 16 | 45 | 0.0 | 0.0 | 0.00 | 0.00 | 0.00 | 83 | 1007.7 |
| 20260509080941 | 16 | 49 | 0.0 | 0.0 | 0.00 | 0.00 | 0.00 | 83 | 1008.0 |
| 20260509080439 | 16 | 49 | 0.0 | 0.0 | 0.00 | 0.00 | 0.00 | 83 | 1007.7 |
| 20260509075937 | 16 | 49 | 0.0 | 0.0 | 0.00 | 0.00 | 0.00 | 83 | 1007.8 |
| 20260509075434 | 16 | 49 | 0.0 | 0.0 | 0.00 | 0.00 | 0.00 | 83 | 1007.8 |
| 20260509074932 | 16 | 49 | 0.0 | 0.0 | 0.00 | 0.00 | 0.00 | 83 | 1007.9 |
| 20260509074429 | 16 | 49 | 0.0 | 1.6 | 0.00 | 0.00 | 0.00 | 83 | 1007.9 |
| 20260509073925 | 16 | 49 | 0.0 | 1.6 | 0.00 | 0.00 | 0.00 | 83 | 1007.9 |
| 20260509073421 | 16 | 50 | 0.0 | 1.6 | 0.00 | 0.00 | 0.00 | 83 | 1008.1 |
| 20260509072918 | 16 | 50 | 0.0 | 0.0 | 0.00 | 0.00 | 0.00 | 83 | 1008.2 |
| 20260509072415 | 16 | 50 | 0.0 | 0.0 | 0.00 | 0.00 | 0.00 | 82 | 1008.1 |
| 20260509071911 | 16 | 50 | 0.0 | 0.0 | 0.00 | 0.00 | 0.00 | 82 | 1008.2 |
| 20260509071408 | 16 | 50 | 0.0 | 1.6 | 0.00 | 0.00 | 0.00 | 82 | 1008.1 |
| 20260509070906 | 16 | 50 | 0.0 | 1.6 | 0.00 | 0.00 | 0.00 | 82 | 1008.6 |
| 20260509070402 | 16 | 50 | 0.0 | 0.0 | 0.00 | 0.00 | 0.00 | 82 | 1008.4 |
| 20260509065858 | 16 | 50 | 0.0 | 0.0 | 0.00 | 0.00 | 0.00 | 82 | 1008.5 |
| 20260509065355 | 16 | 50 | 0.0 | 0.0 | 0.00 | 0.00 | 0.00 | 82 | 1008.4 |
| 20260509064850 | 16 | 50 | 0.0 | 0.0 | 0.00 | 0.00 | 0.00 | 82 | 1008.7 |
| 20260509064348 | 16 | 50 | 0.0 | 0.0 | 0.00 | 0.00 | 0.00 | 82 | 1008.6 |
| 20260509063846 | 16 | 50 | 0.0 | 0.0 | 0.00 | 0.00 | 0.00 | 82 | 1008.9 |
| 20260509063342 | 16 | 50 | 0.0 | 0.0 | 0.00 | 0.00 | 0.00 | 81 | 1008.8 |
| 20260509062839 | 16 | 50 | 0.0 | 0.0 | 0.00 | 0.00 | 0.00 | 81 | 1008.6 |
| 20260509062336 | 16 | 50 | 0.0 | 0.0 | 0.00 | 0.00 | 0.00 | 81 | 1008.8 |